[[{"header":{"parameterUnit":"m.s-1","parameterCategory":1,"la1":30.2991,"la2":30.254,"lo1":-89.0895,"lo2":-89.0444,"dy":0.0017,"dx":0.0017,"nx":28,"ny":28,"refTime":"2024-08-01T03:00:00:Z","depth":0,"parameterNumber":2,"parameterNumberName":"U-component_of_WINDS"},"data":[0,0,0,0,0,0,0,0,0,0,0,0,0,0,0,0,0,0,0,0,0,0,0,0,0,0,0,0,0,0,0,0,0,0,0,0,0,0,0,0,0,0,0,0,0,0,0,0,0,0,0,0,0,0,0,0,0,0,2.0268,2.0268,0,2.0289,2.0289,2.0289,2.0238,2.0236,2.0235,2.0233,2.0255,2.0257,2.0259,0,0,0,0,0,0,0,0,0,0,0,0,0,2.0184,2.0186,2.0268,2.0268,2.0269,2.0289,2.0289,2.0289,2.0238,2.0236,2.0234,2.0232,2.0254,2.0256,2.0259,0,0,0,0,0,0,0,0,0,0,0,0,0,2.0214,2.0187,2.0268,2.0246,2.0244,2.0289,2.0289,2.0289,2.0239,2.0236,2.0234,2.0231,2.0253,2.0256,2.0259,2.0327,0,0,2.0269,2.027,0,0,0,0,0,0,0,0,2.0213,2.0218,2.0249,2.0247,2.0245,2.0258,2.0267,2.0302,2.0239,2.0241,2.0233,2.023,2.0258,2.026,2.027,2.0328,2.0329,2.0269,2.0271,2.0272,2.0273,0,0,0,0,0,0,0,2.0211,2.0216,2.0276,2.0249,2.0247,2.0234,2.0236,2.0274,2.0263,2.024,2.0237,2.024,2.0256,2.0267,2.027,2.0329,2.0269,2.0272,2.0274,2.0275,2.0442,2.0444,0,0,0,0,0,0,2.0212,2.0215,2.0276,2.0277,2.0223,2.0238,2.024,2.0257,2.0262,2.0261,2.0242,2.0237,2.0263,2.0266,2.027,2.0348,2.0272,2.0275,2.0277,2.0439,2.0442,2.0445,0,0,0,0,0,0,2.021,2.0217,2.0275,2.0245,2.0251,2.0242,2.0261,2.0258,2.0268,2.0263,2.0261,2.0254,2.0261,2.0266,2.0313,2.0348,2.0277,2.0279,2.0436,2.044,2.0444,2.0505,0,0,0,0,0,0,2.0208,2.0217,2.0243,2.0246,2.0253,2.0317,2.0264,2.026,2.0274,2.0268,2.0274,2.0273,2.0259,2.0308,2.0316,2.0351,2.0282,2.0433,2.0438,2.0442,2.05,2.051,2.0519,0,0,0,0,0,2.0205,2.026,2.0245,2.0252,2.0285,2.0319,2.0323,2.0306,2.0277,2.0302,2.0299,2.0273,2.0343,2.0314,2.0322,2.0358,2.0431,2.0436,2.0442,2.0495,2.0508,2.0519,0,0,0,0,0,0,2.0262,2.026,2.0243,2.0301,2.0311,2.0311,2.0342,2.0321,2.034,2.0334,2.0312,2.0314,2.0364,2.0366,2.0333,2.0423,2.0382,2.0389,2.0419,2.0432,2.0441,2.0439,2.0284,0,0,0,0,0,2.0282,2.031,2.0306,2.0358,2.0363,2.0352,2.0367,2.0352,2.0362,2.0366,2.0366,2.0376,2.04,2.0416,2.0438,2.05,2.05,2.0529,2.0539,2.0547,2.0554,2.0584,2.0596,2.0464,2.0464,2.0464,0,0,2.0322,2.0324,2.0343,2.0369,2.0375,2.0404,2.0356,2.0389,2.041,2.0371,2.0414,2.0415,2.0424,2.0478,2.0502,2.0481,2.059,2.0555,2.0561,2.0563,2.0591,2.0604,2.0615,2.0468,2.0467,2.0467,0,0,2.041,2.0415,2.0457,2.0464,2.0473,2.0465,2.0475,2.0478,2.0477,2.052,2.049,2.0515,2.0558,2.0565,2.0575,2.0664,2.064,2.0672,2.0723,2.0753,2.0763,2.0772,2.0802,2.0813,2.0678,2.0679,2.0679,0,2.0458,2.0501,2.0482,2.0516,2.0527,2.0493,2.0534,2.0542,2.0559,2.0567,2.0544,2.0595,2.06,2.0653,2.0675,2.0685,2.0694,2.067,2.0763,2.0772,2.0781,2.0808,2.082,2.0682,2.0682,2.0681,2.0681,0,2.0559,2.0589,2.0622,2.0637,2.0652,2.0691,2.0677,2.0694,2.0679,2.0673,2.0717,2.0721,2.0742,2.0754,2.074,2.0806,2.0792,2.0767,2.0725,2.0797,2.0823,2.0833,2.0688,2.0686,2.0685,2.0684,0,0,2.0683,2.0686,2.0699,2.0704,2.0711,2.0734,2.077,2.079,2.0805,2.0817,2.0846,2.0882,2.0858,2.0869,2.0855,2.0882,2.0949,2.0852,2.0852,2.0868,2.1019,2.1037,2.1049,2.0934,2.0936,2.0937,2.1017,0,2.0768,2.0829,2.0812,2.0873,2.0899,2.0866,2.0897,2.0904,2.09,2.0921,2.0917,2.0942,2.0909,2.0915,2.094,2.0935,2.0979,2.093,2.0959,2.096,2.0955,2.1063,2.1082,2.1157,2.1028,2.1029,2.1031,0,2.0875,2.0889,2.0952,2.0953,2.0963,2.0992,2.1007,2.1029,2.1036,2.1031,2.1042,2.1023,2.1058,2.1017,2.1063,2.103,2.1042,2.1041,2.1044,2.1044,2.0998,2.1064,2.1181,2.1192,2.1047,2.1045,2.1044,0,2.0956,2.0992,2.1033,2.104,2.1042,2.1062,2.1065,2.107,2.1082,2.1096,2.1104,2.1123,2.1133,2.1147,2.1133,2.1105,2.1181,2.114,2.1176,2.1177,2.1192,2.1191,2.131,2.1203,2.1203,2.1203,2.1203,0,2.105,2.109,2.1069,2.1095,2.1137,2.1118,2.1161,2.1159,2.1164,2.1188,2.1161,2.1185,2.1165,2.1187,2.1176,2.1215,2.122,2.1216,2.1212,2.1217,2.1217,2.1222,2.1216,2.1206,2.1205,2.1205,2.1204,0,2.1148,2.1136,2.1179,2.1177,2.1178,2.1209,2.1207,2.123,2.1224,2.1255,2.1261,2.1251,2.1274,2.1262,2.1287,2.1279,2.1329,2.1319,2.1326,2.1322,2.1359,2.1355,2.1484,2.1499,2.1385,2.1386,2.1387,0,2.1208,2.1237,2.1238,2.1252,2.1255,2.1278,2.129,2.1272,2.1286,2.1296,2.1317,2.1339,2.1354,2.1393,2.1388,2.1406,2.1396,2.144,2.1398,2.1401,2.1393,2.1391,2.1392,2.1447,2.1449,2.145,2.1451,0,2.1316,2.1308,2.1326,2.1342,2.1357,2.1369,2.1378,2.1391,2.1373,2.139,2.1413,2.1425,2.145,2.147,2.1486,2.1488,2.1466,2.1464,2.1473,2.1477,2.1478,2.1476,2.1346,2.1461,2.146,2.1459,2.1458,2.1458,2.1394,2.1418,2.1421,2.1442,2.1447,2.1456,2.1477,2.1473,2.1491,2.1509,2.1498,2.1524,2.153,2.1548,2.1553,2.1573,2.1555,2.1569,2.1572,2.1575,2.1579,2.1477,2.1576,2.1576,2.1576,2.1575,2.1575,0,2.1498,2.1499,2.1518,2.1531,2.1547,2.1525,2.1534,2.1549,2.1573,2.1579,2.1595,2.162,2.164,2.1636,2.1653,2.167,2.1661,2.1675,2.1673,2.1673,2.1595,2.1584,2.1683,2.1683,2.1683,2.1683,2.1683,2.1683,2.1554,2.1591,2.1584,2.1623,2.1623,2.1648,2.1655,2.1663,2.1668,2.1697,2.1713,2.171,2.1712,2.1729,2.1746,2.1744,2.1751,2.1769,2.1763,2.169,2.1679,2.1669,2.1658,2.1771,2.1771,2.1839,2.184,2.184]},{"header":{"parameterUnit":"m.s-1","parameterCategory":1,"la1":30.2991,"la2":30.254,"lo1":-89.0895,"lo2":-89.0444,"dy":0.0017,"dx":0.0017,"nx":28,"ny":28,"refTime":"2024-08-01T03:00:00:Z","depth":0,"parameterNumber":3,"parameterNumberName":"V-component_of_WINDS"},"data":[0,0,0,0,0,0,0,0,0,0,0,0,0,0,0,0,0,0,0,0,0,0,0,0,0,0,0,0,0,0,0,0,0,0,0,0,0,0,0,0,0,0,0,0,0,0,0,0,0,0,0,0,0,0,0,0,0,0,-0.5281,-0.5281,0,-0.5242,-0.5242,-0.5241,-0.5207,-0.5206,-0.5206,-0.5205,-0.5162,-0.5161,-0.516,0,0,0,0,0,0,0,0,0,0,0,0,0,-0.5323,-0.5322,-0.5281,-0.5281,-0.528,-0.5242,-0.5242,-0.5241,-0.5207,-0.5206,-0.5206,-0.5205,-0.5162,-0.5161,-0.516,0,0,0,0,0,0,0,0,0,0,0,0,0,-0.5297,-0.5322,-0.5281,-0.5259,-0.5256,-0.5243,-0.5242,-0.5241,-0.5207,-0.5206,-0.5205,-0.5205,-0.5163,-0.5161,-0.516,-0.5165,0,0,-0.5157,-0.5156,0,0,0,0,0,0,0,0,-0.5298,-0.5295,-0.5262,-0.526,-0.5257,-0.5229,-0.5241,-0.5216,-0.5207,-0.5225,-0.5205,-0.5205,-0.5184,-0.5181,-0.5175,-0.5163,-0.5161,-0.5157,-0.5156,-0.5155,-0.5155,0,0,0,0,0,0,0,-0.53,-0.5297,-0.5266,-0.5262,-0.5259,-0.5249,-0.5245,-0.5236,-0.5209,-0.5224,-0.5221,-0.5217,-0.5183,-0.5177,-0.5174,-0.5161,-0.5157,-0.5156,-0.5155,-0.5154,-0.515,-0.5151,0,0,0,0,0,0,-0.5306,-0.5298,-0.5267,-0.5265,-0.5277,-0.5249,-0.5244,-0.5238,-0.5209,-0.5204,-0.5218,-0.5216,-0.5179,-0.5175,-0.5172,-0.5176,-0.5155,-0.5154,-0.5154,-0.515,-0.5151,-0.5151,0,0,0,0,0,0,-0.5307,-0.5303,-0.5269,-0.5281,-0.5276,-0.5249,-0.5243,-0.5238,-0.5232,-0.5204,-0.5199,-0.5216,-0.5178,-0.5174,-0.5167,-0.5174,-0.5154,-0.5153,-0.5149,-0.515,-0.5151,-0.5184,0,0,0,0,0,0,-0.5308,-0.5304,-0.5306,-0.5281,-0.5275,-0.5265,-0.5243,-0.5238,-0.523,-0.5227,-0.5202,-0.5197,-0.5177,-0.5169,-0.5166,-0.5172,-0.5152,-0.5148,-0.515,-0.5151,-0.5182,-0.5186,-0.5189,0,0,0,0,0,-0.531,-0.5316,-0.5306,-0.5303,-0.5277,-0.5266,-0.5262,-0.5241,-0.5231,-0.5232,-0.5215,-0.5197,-0.5174,-0.5169,-0.5165,-0.5171,-0.5148,-0.5149,-0.5151,-0.518,-0.5185,-0.5189,0,0,0,0,0,0,-0.5341,-0.5312,-0.5301,-0.53,-0.5286,-0.526,-0.5261,-0.5246,-0.5234,-0.5231,-0.5205,-0.5199,-0.5195,-0.5182,-0.5177,-0.5174,-0.5159,-0.5159,-0.5183,-0.5187,-0.519,-0.5193,-0.5151,0,0,0,0,0,-0.5348,-0.5342,-0.5317,-0.5318,-0.5312,-0.5288,-0.5282,-0.5267,-0.5251,-0.5244,-0.5226,-0.521,-0.5199,-0.5192,-0.5181,-0.518,-0.5174,-0.5182,-0.5186,-0.5189,-0.5189,-0.5188,-0.5191,-0.5156,-0.5156,-0.5156,0,0,-0.5362,-0.5346,-0.5343,-0.5324,-0.5311,-0.5305,-0.5283,-0.5277,-0.5271,-0.5243,-0.5236,-0.5222,-0.5202,-0.5199,-0.5197,-0.5188,-0.5198,-0.519,-0.5193,-0.5192,-0.519,-0.5193,-0.5196,-0.5156,-0.5156,-0.5156,0,0,-0.5384,-0.5371,-0.5371,-0.5359,-0.534,-0.5325,-0.5325,-0.5301,-0.5292,-0.5285,-0.5263,-0.5256,-0.5238,-0.5224,-0.5215,-0.5234,-0.5217,-0.523,-0.5248,-0.5247,-0.525,-0.5252,-0.5259,-0.5261,-0.5231,-0.5231,-0.5231,0,-0.5403,-0.5394,-0.5372,-0.5368,-0.536,-0.5335,-0.5334,-0.5323,-0.5302,-0.5296,-0.5287,-0.5264,-0.5249,-0.5243,-0.5247,-0.5241,-0.5239,-0.5233,-0.5252,-0.5254,-0.5256,-0.5261,-0.5264,-0.5233,-0.5233,-0.5233,-0.5233,0,-0.5418,-0.5412,-0.5413,-0.5395,-0.5387,-0.5384,-0.5362,-0.5356,-0.5342,-0.5327,-0.532,-0.5302,-0.5286,-0.5283,-0.5269,-0.5275,-0.527,-0.5257,-0.5241,-0.5261,-0.5266,-0.5268,-0.5236,-0.5235,-0.5235,-0.5234,0,0,-0.5458,-0.5428,-0.5429,-0.542,-0.5398,-0.5392,-0.5389,-0.5375,-0.537,-0.5356,-0.5352,-0.5338,-0.5325,-0.5315,-0.5299,-0.5299,-0.5314,-0.5285,-0.5284,-0.5291,-0.5319,-0.5329,-0.5331,-0.5303,-0.5304,-0.5304,-0.532,0,-0.5476,-0.5468,-0.545,-0.5448,-0.5441,-0.5418,-0.5415,-0.5401,-0.5387,-0.5378,-0.5363,-0.5353,-0.5338,-0.5332,-0.533,-0.5313,-0.5319,-0.5311,-0.5298,-0.5298,-0.5303,-0.5334,-0.5344,-0.536,-0.5322,-0.5322,-0.5323,0,-0.5495,-0.5484,-0.5482,-0.5461,-0.5458,-0.5455,-0.5441,-0.5434,-0.5417,-0.5407,-0.5396,-0.5379,-0.5373,-0.5359,-0.535,-0.5345,-0.5338,-0.5329,-0.5329,-0.5326,-0.5311,-0.5332,-0.5365,-0.5368,-0.5325,-0.5325,-0.5325,0,-0.5524,-0.5509,-0.5506,-0.5499,-0.5474,-0.5473,-0.5462,-0.5445,-0.5438,-0.5426,-0.5421,-0.5407,-0.5399,-0.5389,-0.5368,-0.536,-0.5361,-0.5345,-0.5352,-0.5352,-0.5352,-0.5353,-0.5385,-0.5349,-0.5349,-0.5349,-0.5349,0,-0.5546,-0.5546,-0.5518,-0.5516,-0.5515,-0.5493,-0.5492,-0.5479,-0.5464,-0.5459,-0.5438,-0.5433,-0.5406,-0.5398,-0.5382,-0.5376,-0.5373,-0.5364,-0.536,-0.5366,-0.5367,-0.5361,-0.5359,-0.535,-0.535,-0.535,-0.5349,0,-0.5578,-0.556,-0.5555,-0.5532,-0.5527,-0.5527,-0.5507,-0.5504,-0.5489,-0.5483,-0.548,-0.5456,-0.5445,-0.5424,-0.5407,-0.5396,-0.5394,-0.5387,-0.54,-0.5398,-0.5405,-0.5405,-0.5434,-0.5437,-0.54,-0.5401,-0.5401,0,-0.5593,-0.5592,-0.557,-0.5566,-0.5556,-0.5549,-0.5542,-0.5521,-0.5514,-0.5496,-0.5495,-0.5483,-0.5472,-0.5455,-0.5436,-0.5423,-0.5415,-0.5426,-0.5412,-0.5419,-0.5414,-0.5415,-0.5414,-0.5429,-0.5429,-0.543,-0.543,0,-0.5621,-0.5612,-0.5604,-0.5592,-0.5585,-0.5574,-0.5563,-0.556,-0.5536,-0.5529,-0.5519,-0.5511,-0.5494,-0.5482,-0.5466,-0.5454,-0.5438,-0.5435,-0.5436,-0.5441,-0.5449,-0.5445,-0.5408,-0.5434,-0.5434,-0.5433,-0.5433,-0.5433,-0.5644,-0.5643,-0.5628,-0.5619,-0.5608,-0.5598,-0.5594,-0.5579,-0.5571,-0.5556,-0.5544,-0.5535,-0.5518,-0.5495,-0.5484,-0.5476,-0.5468,-0.5469,-0.547,-0.547,-0.5473,-0.5451,-0.5473,-0.5473,-0.5473,-0.5473,-0.5473,0,-0.5671,-0.5661,-0.5653,-0.5638,-0.5631,-0.5618,-0.5605,-0.5599,-0.5592,-0.5578,-0.5568,-0.5556,-0.5545,-0.5525,-0.5512,-0.5509,-0.5501,-0.5506,-0.5506,-0.5503,-0.548,-0.5481,-0.5513,-0.5513,-0.5513,-0.5513,-0.5513,-0.5513,-0.5685,-0.5681,-0.5671,-0.5662,-0.5651,-0.5643,-0.5636,-0.5626,-0.5615,-0.5603,-0.5594,-0.5582,-0.5566,-0.5552,-0.554,-0.5535,-0.553,-0.5538,-0.553,-0.5509,-0.5505,-0.5501,-0.5502,-0.5537,-0.5537,-0.5553,-0.5553,-0.5553]}]]